User: anonymous   Login
Location: Fairmont
(43.6520°N, 94.4610°W)
Time: 12:33:02
(UTC-06:00)
Language:

Cosmos-2242 - Orbit

View from above orbital plane
View from above orbital plane
View from above satellite
View from above satellite

Ground track
Ground track

The orbit data is extracted from the following two-line orbital elements,

1 22626U 93024A   14330.16073749  .00001885  00000-0  21075-3 0  2706
2 22626 082.5228 201.7599 0019089 343.9344 016.1264 14.86329739167328
Epoch (UTC): 26 November 2014 03:51:27
Eccentricity: 0.0019089
inclination: 82.5228°
perigee height: 596 km
apogee height: 623 km
right ascension of ascending node: 201.7599°
argument of perigee: 343.9344°
revolutions per day: 14.86329739
mean anomaly at epoch: 16.1264°
orbit number at epoch: 16732

The dashed part of the orbit path shows where the satellite is in the earth's shadow,  

DLR